Home > Weather > Reading > Past weeks

Flag for United Kingdom Past Weather in Reading, England, United Kingdom — Yesterday and Last 2 Weeks

Now
55 °F

Passing clouds.


Feels Like: 52 °F
Forecast: 42 / 57 °F
Wind: 12 mph from Northeast

Location: Benson

Current Time: May 24, 2016 at 11:03:20 AM

Latest Report: May 24, 2016 at 9:50 AM


Visibility: N/A

Pressure: 30.18 "Hg

Humidity: 59%

Dew Point: 41 °F

Location of ReadingLocation

Past Weather in Reading — Graph

°F

Reading Temperature Yesterday

Maximum temperature yesterday: 64 °F (at 3:50 PM)
Minimum temperature yesterday: 41 °F (at 4:50 AM)
Average temperature yesterday: 53 °F

High & Low Weather Summary for the Past Weeks

 TemperatureHumidityPressure
High73 °F (May 9, 12:50 PM)100% (May 10, 4:50 AM)30.21 "Hg (May 10, 4:50 AM)
Low37 °F (May 15, 4:50 AM)44% (May 15, 12:50 PM)29.59 "Hg (May 11, 11:50 AM)
Average55 °F80%29.87 "Hg
* Reported May 9 8:50 AM — May 24 8:50 AM, Reading, Weather by CustomWeather, © 2016

Note: Actual official high and low records may vary slightly from our data, if they occured in-between our weather recording intervals... More about our weather records

Advertising

Reading Weather History for the Previous 24 Hours

Scroll right to see more
 ConditionsComfort  
Time TempWeatherWind HumidityBarometerVisibility
8:50 AM
Tue, May 24
52 °FPassing clouds.6 mph77%30.18 "HgN/A
7:50 AM48 °FScattered clouds.7 mph87%30.18 "HgN/A
6:50 AM45 °FFog.8 mph100%30.18 "Hg4 mi
5:50 AM41 °FFog.2 mph93%30.21 "Hg3 mi
4:50 AM37 °FFog.1 mph93%30.18 "HgN/A
3:50 AM43 °FClear.2 mph100%30.18 "Hg5 mi
2:50 AM45 °FClear.5 mph93%30.18 "Hg5 mi
1:50 AM46 °FClear.2 mph93%30.18 "Hg10 mi
12:50 AM46 °FClear.5 mph93%30.18 "Hg10 mi
11:50 PM
Mon, May 23
46 °FClear.5 mph93%30.18 "Hg10 mi
10:50 PM46 °FClear.3 mph93%30.18 "Hg10 mi
9:50 PM48 °FSunny.3 mph87%30.15 "Hg10 mi
8:50 PM54 °FSunny.7 mph77%30.15 "Hg10 mi
7:50 PM55 °FSunny.7 mph67%30.12 "Hg10 mi
6:50 PM57 °FPassing clouds.10 mph59%30.12 "HgN/A
5:50 PM63 °FPassing clouds.9 mph49%30.09 "HgN/A
4:50 PM64 °FScattered clouds.8 mph49%30.09 "HgN/A
3:50 PM64 °FPassing clouds.9 mph49%30.09 "HgN/A
2:50 PM63 °FScattered clouds.9 mph45%30.09 "HgN/A
1:50 PM63 °FScattered clouds.9 mph52%30.09 "HgN/A
12:50 PM63 °FScattered clouds.10 mph52%30.07 "HgN/A
11:50 AM61 °FScattered clouds.10 mph55%30.07 "HgN/A
Weather by CustomWeather, © 2016

See weather overviewHow to use our weather pages